EDT,Max TemperatureF,Mean TemperatureF,Min TemperatureF,Max Dew PointF,MeanDew PointF,Min DewpointF,Max Humidity, Mean Humidity, Min Humidity, Max Sea Level PressureIn, Mean Sea Level PressureIn, Min Sea Level PressureIn, Max VisibilityMiles, Mean VisibilityMiles, Min VisibilityMiles, Max Wind SpeedMPH, Mean Wind SpeedMPH, Max Gust SpeedMPH,PrecipitationIn, CloudCover, Events, WindDirDegrees
2012-9-1,79,66,52,61,54,50,93,68,42,30.18,30.14,30.09,10,10,10,13,5,16,0.00,0,,45
2012-9-2,74,61,48,61,53,48,96,75,53,30.14,30.11,30.05,10,10,10,16,5,24,0.00,0,,114
2012-9-3,85,66,47,62,55,46,96,68,40,30.04,29.98,29.91,10,10,10,16,4,20,0.00,1,,142
2012-9-4,82,71,59,66,63,57,97,78,58,29.94,29.90,29.86,10,9,3,12,3,15,0.14,4,Rain,98
2012-9-5,84,71,57,68,62,55,100,74,47,29.87,29.81,29.73,10,8,2,14,5,18,0.14,4,Rain-Thunderstorm,171
2012-9-6,79,65,50,60,56,51,100,72,43,29.91,29.87,29.80,10,8,1,13,2,15,0.00,2,,226
2012-9-7,69,60,51,58,55,50,100,83,66,29.91,29.85,29.76,10,9,2,10,2,14,0.20,7,Rain,297
2012-9-8,65,57,49,55,51,38,100,69,37,29.83,29.71,29.66,10,10,2,22,7,30,0.08,4,Rain,305
2012-9-9,68,57,45,50,43,34,100,67,34,30.11,29.98,29.84,10,10,4,22,7,25,0.00,0,,308
2012-9-10,72,57,41,54,47,39,93,63,33,30.22,30.15,30.09,10,10,10,14,5,22,0.00,1,,214
2012-9-11,82,66,49,56,52,47,96,65,33,30.13,30.07,30.02,10,10,10,18,8,23,0.00,1,,200
2012-9-12,89,73,56,62,56,52,87,59,31,30.17,30.07,30.01,10,10,10,18,8,26,0.00,2,,226
2012-9-13,71,61,50,55,51,44,100,69,38,30.29,30.22,30.16,10,9,2,17,4,22,0.09,5,Rain,320
2012-9-14,68,56,44,52,47,41,100,72,43,30.29,30.25,30.21,10,8,0,18,5,25,T,4,Fog-Rain-Thunderstorm,292
2012-9-15,65,53,41,48,44,40,100,72,43,30.34,30.26,30.17,10,10,10,14,5,23,0.00,1,,325
2012-9-16,80,60,39,52,45,37,93,61,28,30.15,30.01,29.92,10,10,10,17,6,26,0.00,1,,228
2012-9-17,78,66,54,58,51,44,100,72,43,29.94,29.81,29.69,10,10,6,20,7,28,0.17,6,Rain-Thunderstorm,228
2012-9-18,55,48,40,55,46,38,100,80,59,29.90,29.73,29.65,10,9,2,20,9,24,0.14,7,Rain,318
2012-9-19,59,47,35,43,38,35,100,74,47,30.04,29.97,29.83,10,10,10,24,7,32,T,5,,203
2012-9-20,66,58,49,48,45,41,93,69,44,29.84,29.79,29.76,10,10,5,20,9,26,0.16,4,Rain,221
2012-9-21,63,53,43,48,43,38,93,70,46,29.87,29.82,29.76,10,10,10,18,7,26,0.02,4,Rain,210
2012-9-22,56,49,41,45,42,36,93,74,54,30.00,29.79,29.67,10,9,4,24,7,33,0.42,5,Rain,298
2012-9-23,54,47,39,42,39,37,92,73,54,30.16,30.09,30.00,10,10,10,21,5,26,0.05,3,Rain,269
2012-9-24,63,50,37,40,37,35,100,68,36,30.14,29.92,29.70,10,10,10,24,11,37,0.00,4,,222
2012-9-25,61,50,38,49,44,37,100,77,53,29.90,29.86,29.78,10,10,10,14,4,17,0.00,5,,26
2012-9-26,62,49,36,45,41,36,96,69,42,30.22,30.05,29.90,10,10,10,16,4,18,0.00,2,,321
2012-9-27,63,48,33,45,39,34,100,74,48,30.32,30.26,30.22,10,10,10,10,3,14,0.00,1,,356
2012-9-28,65,49,33,46,38,33,100,70,40,30.21,30.17,30.10,10,6,0,10,2,14,0.00,3,Fog,220
2012-9-29,63,49,35,50,45,35,100,78,56,30.09,30.05,30.02,10,10,10,17,5,30,0.03,2,Rain,353
2012-9-30,62,50,37,48,42,37,100,73,46,30.06,30.02,29.97,10,10,10,13,5,16,0.00,1,,8